Weather History for Bettles, AK

Change the Weather History Date:

Friday, May 31, 2013

  Actual Average Record
Temperature  
Mean Temperature 56 °F -  
Max Temperature 73 °F 63 °F 86 °F (1983)
Min Temperature 39 °F 42 °F 31 °F (1960)
Degree Days  
Heating Degree Days 9    
Growing Degree Days 6 (Base 50)    
Moisture  
Dew Point 33 °F    
Average Humidity 42    
Maximum Humidity 80    
Minimum Humidity 14    
Precipitation  
Precipitation 0.00 in - - ()
Sea Level Pressure  
Sea Level Pressure 29.97 in    
Wind  
Wind Speed 4 mph (NNW)    
Max Wind Speed 12 mph    
Max Gust Speed 21 mph    
Visibility 10 miles    
Events      
Averages and records for this station are not official NWS values.
T = Trace of Precipitation, MM = Missing Value Source: NWS Daily Summary

Daily Weather History Graph

Daily Weather History Graph

Search for Another Location

Airport:

Trip Planner

Search our weather history database for the weather conditions in past years. The results will help you decide how hot, cold, wet, or windy it might be!

Date:

Astronomy

May. 31, 2013 Rise Set
Actual Time 2:41 AM AKDT 1:36 AM AKDT
Civil Twilight Sun does not rise Sun does not rise
Nautical Twilight Sun does not rise Sun does not rise
Astronomical Twilight Sun does not rise Sun does not rise
Moon 2:39 AM AKDT (5/31) 1:48 PM AKDT (5/31)
Length of Visible Light 24h 00m
Length of Day
22h 54m
Waning Gibbous, 50% of the Moon is Illuminated
May 31
Waning Gibbous
Jun 8
New
Jun 16
First Quarter
Jun 23
Full
Jun 29
Last Quarter

Hourly Weather History & Observations

Time (AKDT) Temp. Windchill Dew Point Humidity Pressure Visibility Wind Dir Wind Speed Gust Speed Precip Events Conditions
12:53 AM 52.0 °F - 39.9 °F 63% 29.88 in 10.0 mi ESE 4.6 mph - N/A   Partly Cloudy
1:53 AM 50.0 °F - 39.9 °F 68% 29.90 in 10.0 mi Calm Calm - N/A   Partly Cloudy
2:53 AM 43.0 °F - 37.0 °F 80% 29.92 in 10.0 mi Calm Calm - N/A   Partly Cloudy
3:53 AM 42.1 °F 39.2 °F 35.1 °F 76% 29.93 in 10.0 mi NNE 4.6 mph - N/A   Partly Cloudy
4:53 AM 43.0 °F - 35.1 °F 74% 29.94 in 10.0 mi Calm Calm - N/A   Partly Cloudy
5:53 AM 45.0 °F - 35.1 °F 68% 29.95 in 10.0 mi Calm Calm - N/A   Partly Cloudy
6:53 AM 48.0 °F - 35.1 °F 61% 29.96 in 10.0 mi NW 3.5 mph - N/A   Clear
7:53 AM 50.0 °F - 34.0 °F 54% 29.97 in 10.0 mi Calm Calm - N/A   Clear
8:53 AM 53.1 °F - 34.0 °F 48% 29.98 in 10.0 mi WNW 4.6 mph - N/A   Clear
9:53 AM 57.0 °F - 35.1 °F 44% 29.98 in 10.0 mi WNW 8.1 mph - N/A   Clear
10:53 AM 60.1 °F - 34.0 °F 38% 29.99 in 10.0 mi Calm Calm - N/A   Clear
11:53 AM 63.0 °F - 35.1 °F 35% 29.99 in 10.0 mi Calm Calm - N/A   Clear
12:53 PM 64.9 °F - 35.1 °F 33% 29.99 in 10.0 mi Variable 5.8 mph - N/A   Clear
1:53 PM 68.0 °F - 35.1 °F 30% 29.98 in 10.0 mi NW 4.6 mph - N/A   Clear
2:53 PM 69.1 °F - 37.0 °F 31% 29.97 in 10.0 mi Variable 5.8 mph - N/A   Partly Cloudy
3:53 PM 71.1 °F - 35.1 °F 27% 29.97 in 10.0 mi Variable 4.6 mph - N/A   Partly Cloudy
4:53 PM 72.0 °F - 34.0 °F 25% 29.96 in 10.0 mi NNW 10.4 mph - N/A   Partly Cloudy
5:53 PM 71.1 °F - 35.1 °F 27% 29.97 in 10.0 mi Variable 6.9 mph - N/A   Partly Cloudy
6:53 PM 70.0 °F - 32.0 °F 25% 29.98 in 10.0 mi North 9.2 mph 18.4 mph N/A   Partly Cloudy
7:53 PM 68.0 °F - 28.0 °F 22% 29.99 in 10.0 mi NNW 11.5 mph 18.4 mph N/A   Clear
8:53 PM 64.0 °F - 25.0 °F 23% 30.01 in 10.0 mi NNW 10.4 mph 20.7 mph N/A   Clear
9:53 PM 61.0 °F - 25.0 °F 25% 30.02 in 10.0 mi NNW 9.2 mph 18.4 mph N/A   Clear
10:53 PM 57.9 °F - 25.0 °F 28% 30.05 in 10.0 mi NNW 6.9 mph - N/A   Clear
11:53 PM 54.0 °F - 25.0 °F 33% 30.07 in 10.0 mi NNW 4.6 mph - N/A   Clear